AZG7L UBBB-LIMC

Flight info

Callsign AZG7L
Flight time N/A
Altitude 36000
Route RASAM N199 LUSAL/N0504F340 M11 MATAL/N0502F360 M11 REBLO UM11 CRM UM688 EKSUK UL852 NEGEM Q8 DOLAP DCT EDUGI DCT LOMED/N0439F180 M730 MIVKI T648 MEBUR
Aircraft B748/H-SDE3FGHIM1M2RWXY/LB1

Departure

Time 2025-09-09 10:13
Airport Heydar Aliyev International Airport (UBBB)

Arrival

Time N/A
Airport Milan Malpensa International Airport (LIMC)
Time Latitude Longitude Altitude Speed Heading
2025-09-09 09:48 40.45985 50.05853 0 ft 0 kts 269°
2025-09-09 10:03 40.45993 50.05913 -1 ft 7 kts 240°
2025-09-09 10:04 40.46092 50.05964 -1 ft 1 kts 176°
2025-09-09 10:04 40.46110 50.05963 -1 ft 1 kts 178°
2025-09-09 10:05 40.46125 50.05962 0 ft 0 kts 178°
2025-09-09 10:08 40.46023 50.05964 -2 ft 10 kts 180°
2025-09-09 10:09 40.45811 50.06088 -3 ft 11 kts 152°
2025-09-09 10:10 40.45656 50.06167 -3 ft 13 kts 98°
2025-09-09 10:10 40.45682 50.06326 -3 ft 6 kts 357°
2025-09-09 10:11 40.46074 50.06319 -3 ft 79 kts 359°
2025-09-09 10:12 40.49074 50.06263 194 ft 183 kts
2025-09-09 10:12 40.50316 50.06249 727 ft 184 kts
2025-09-09 10:13 40.53040 50.05637 1817 ft 207 kts 351°
2025-09-09 10:13 40.56020 50.04790 2560 ft 236 kts 350°
2025-09-09 10:14 40.59468 50.03673 3351 ft 271 kts 335°
2025-09-09 10:14 40.61860 49.99855 4627 ft 285 kts 281°
2025-09-09 10:15 40.61800 49.94676 6050 ft 287 kts 263°
2025-09-09 10:15 40.61663 49.89421 7471 ft 290 kts 269°
2025-09-09 10:16 40.61742 49.83987 7951 ft 302 kts 269°
2025-09-09 10:16 40.61813 49.78538 7980 ft 295 kts 269°
2025-09-09 10:17 40.61802 49.73047 9041 ft 303 kts 267°
2025-09-09 10:17 40.61758 49.67633 10652 ft 294 kts 267°
2025-09-09 10:18 40.61707 49.62125 11467 ft 314 kts 267°
2025-09-09 10:18 40.61680 49.59184 11715 ft 330 kts 267°
2025-09-09 10:18 40.61614 49.52808 12055 ft 367 kts 268°
2025-09-09 10:19 40.61505 49.42096 13004 ft 408 kts 268°
2025-09-09 10:20 40.61428 49.34658 14556 ft 407 kts 267°
2025-09-09 10:20 40.61345 49.27264 16005 ft 406 kts 267°
2025-09-09 10:21 40.61255 49.19805 17219 ft 410 kts 267°
2025-09-09 10:21 40.61126 49.12290 18398 ft 414 kts 267°
2025-09-09 10:22 40.60980 49.04739 19494 ft 418 kts 267°
2025-09-09 10:22 40.60826 48.97073 20550 ft 422 kts 267°
2025-09-09 10:23 40.60667 48.89331 21560 ft 426 kts 267°
2025-09-09 10:23 40.60502 48.81536 22513 ft 430 kts 267°
2025-09-09 10:24 40.60333 48.73690 23439 ft 433 kts 267°
2025-09-09 10:24 40.60155 48.65770 24329 ft 437 kts 267°
2025-09-09 10:25 40.59969 48.57740 25166 ft 440 kts 267°
2025-09-09 10:27 40.59158 48.25008 28083 ft 456 kts 266°
2025-09-09 10:29 40.58350 47.91975 32044 ft 434 kts 269°
2025-09-09 10:31 40.59421 47.61036 34961 ft 416 kts 269°
2025-09-09 10:33 40.60314 47.31057 35933 ft 411 kts 268°
2025-09-09 10:35 40.62401 47.01297 35898 ft 412 kts 273°
2025-09-09 10:37 40.65425 46.71555 35954 ft 412 kts 272°
2025-09-09 10:38 40.67987 46.45593 35959 ft 413 kts 272°
2025-09-09 10:41 40.71212 46.12013 35966 ft 411 kts 271°
2025-09-09 10:42 40.73652 45.85831 36167 ft 408 kts 271°
2025-09-09 10:45 40.76679 45.52316 36210 ft 409 kts 271°
2025-09-09 10:46 40.77989 45.26241 36276 ft 408 kts 268°
2025-09-09 10:49 40.79438 44.92662 36161 ft 410 kts 268°
2025-09-09 10:50 40.80507 44.66629 36179 ft 407 kts 268°
2025-09-09 10:53 40.81794 44.33095 36179 ft 408 kts 266°
2025-09-09 10:54 40.82726 44.07034 36037 ft 408 kts 266°
2025-09-09 10:57 40.83848 43.73444 36046 ft 408 kts 265°
2025-09-09 10:58 40.85178 43.47258 36146 ft 410 kts 268°
2025-09-09 11:01 40.87191 43.09785 36180 ft 411 kts 267°
2025-09-09 11:02 40.88340 42.87220 36266 ft 415 kts 266°
2025-09-09 11:05 40.89980 42.53301 36236 ft 415 kts 266°
2025-09-09 11:06 40.91186 42.26843 36210 ft 415 kts 266°
2025-09-09 11:09 40.92656 41.92748 36178 ft 413 kts 265°
2025-09-09 11:11 40.93882 41.62412 36110 ft 408 kts 265°
2025-09-09 11:13 40.95023 41.32000 36234 ft 419 kts 265°
2025-09-09 11:15 40.96089 41.01464 36172 ft 415 kts 264°